Location: Arbon
(43.0005°N, 0.7472°E)
Time: 09:00:50
(UTC+00:00)

Vanguard 2 Rocket - Pass Details

Date: 28 November 2020
Orbit: 554 x 3325 km, 32.9° (Epoch: 21 January)

Event Time Altitude Azimuth Distance (km) Brightness Sun altitude
Rises 09:29:48 0° 251° (WSW) 7,288 11.4 18.5°
Reaches altitude 10° 09:34:50 10° 248° (WSW) 6,281 11.1 19.0°
Maximum altitude 09:54:01 58° 177° (S) 3,131 10.5 20.7°
Drops below altitude 10° 10:07:08 10° 103° (ESE) 4,469 11.1 21.7°
Sets 10:10:03 0° 99° (E) 5,153 11.2 22.0°
